Regional Weather Roundup
Issued by NWS

Home | Current Version | Previous Version | Graphics & Text | Print | Product List | Glossary On
Versions: 1 2 3 4 5 6 7 8 9 10 11 12 13 14 15 16 17 18 19 20 21 22 23 24 25 26 27 28 29 30 31 32 33 34 35 36 37 38 39 40 41 42 43 44 45 46 47 48 49 50
000
ASUS45 KBOU 271307
RWRCO

WEATHER ROUNDUP FOR COLORADO
NATIONAL WEATHER SERVICE DENVER/BOULDER CO
700 AM MDT THU APR 27 2017

NOTE: "FAIR" INDICATES FEW OR NO CLOUDS BELOW 12000 FEET WITH NO
SIGNIFICANT WEATHER AND/OR OBSTRUCTIONS TO VISIBILITY.

COZ001>005-013-030-031-271400-
...NORTHWEST COLORADO...

CITY           SKY/WX    TMP DP  RH WIND       PRES   REMARKS
CRAIG          LGT RAIN  39  35  86 SW3       29.63S
HAYDEN         CLOUDY    34  30  86 SW5       29.63S WCI  30
MEEKER         LGT SNOW  36  33  89 CALM      29.64S FOG
MOUNT WERNER   NOT AVBL
STEAMBOAT SPGS CLOUDY    32  32 100 CALM      29.62S VSB 3/4
WALDEN           N/A     32  28  86 S7        29.62S WCI  26
$$

COZ006>008-011-271400-
...WEST CENTRAL VALLEYS...

CITY           SKY/WX    TMP DP  RH WIND       PRES   REMARKS
GRAND JUNCTION LGT RAIN  42  41  96 NW3       29.68R
MONTROSE       FAIR      39  37  92 E3        29.70S
EAGLE          LGT RAIN  36  34  93 CALM      29.66S
RIFLE          CLOUDY    41  39  93 CALM      29.66S
DELTA          FAIR      42  39  88 NE3       29.68S
NUCLA          CLOUDY    45  36  70 S3        29.73S
$$

COZ017>023-064>068-271400-
...SOUTHWEST COLORADO...

CITY           SKY/WX    TMP DP  RH WIND       PRES   REMARKS
DURANGO        CLOUDY    37  35  92 CALM      29.73S
CORTEZ         LGT RAIN  43  42  97 NE7       29.72S
PAGOSA SPRINGS SNOW      34  34 100 CALM      29.74F VSB 1/2
TELLURIDE      FLURRIES  34  32  93 W6        29.77R WCI  29
WOLF CREEK PAS SNOW      21  21 100 SW13G18   29.81S VSB<1/4 WCI   9
$$

COZ009-010-012-014-032>034-037-058>063-271400-
...CENTRAL COLORADO...

CITY           SKY/WX    TMP DP  RH WIND       PRES   REMARKS
ASPEN          SNOW      32  32 100 CALM      29.65R VSB 1/2
BUENA VISTA    MOCLDY    34  30  85 CALM      29.63F
COPPER MTN     LGT SNOW  27  19  74 MISG      29.68S
BERTHOUD PASS  CLOUDY    18   5  57 NW25      29.65S WCI  -1
COTTONWOOD PAS CLOUDY    32  28  86 SE8       29.65F WCI  25
GUNNISON       SNOW      32  32 100 CALM      29.68R VSB 1/4
KREMMLING      LGT SNOW  37  36  93 SE5       29.64S
LEADVILLE      HVY SNOW  26  25  96 CALM      29.64S VSB 1/4
MONARCH PASS   CLOUDY    23  21  93 SW21      29.80S WCI   8
SALIDA         MOCLDY    42  29  61 SW5       29.69F
SUNLIGHT       LGT SNOW  25  23  93 SW12G25   29.71F WCI  14
WILKERSON PASS SNOW      23  21  93 SW10G21   29.67F VSB 1/4 WCI  12
$$

COZ069>075-271400-
...SAN LUIS VALLEY/SANGRE DE CRISTO MOUNTAINS...

CITY           SKY/WX    TMP DP  RH WIND       PRES   REMARKS
ALAMOSA        FAIR      39  30  70 S10       29.66F
LA VETA PASS   LGT SNOW  28  27  93 S23G37    29.78R WCI  14
SAGUACHE       LGT RAIN  36  32  87 CALM      29.69S
$$

COZ035-036-038>040-271400-
...NORTHERN COLORADO FRONT RANGE...

CITY           SKY/WX    TMP DP  RH WIND       PRES   REMARKS
DENVER INTL AP MOCLDY    40  34  79 W13       29.57R
DMNS CITY PARK   N/A     42  34  74 NW2       29.57S
AURORA         MOCLDY    40  37  87 W6        29.57S
FRONT RANGE AP MOCLDY    41  37  87 SW7       29.56F
ERIE MUNI ARPT CLOUDY    40  37  89 CALM      29.58S
BOULDER MUN AP FAIR      37  36  93 CALM      29.57S
CENTENNIAL     MOCLDY    40  35  83 SW3       29.57S
BROOMFIELD     MOCLDY    39  36  87 NW12      29.57S
FORT COLLINS   FAIR      37  35  92 N6        29.58S
LONGMONT       CLOUDY    41  37  83 CALM      29.59F HAZE
$$

COZ041-046-047-076>085-087-088-271400-
...PIKES PEAK/PALMER DIVIDE AND SOUTHERN FOOTHILLS...

CITY           SKY/WX    TMP DP  RH WIND       PRES   REMARKS
COLO. SPRINGS  MOCLDY    39  33  79 W3        29.60S
A. F. ACADEMY  FAIR      34  31  89 NW6       29.59S WCI  29
SCHRIEVER AFB  FAIR      38  33  84 NE10      29.59S
ELLICOTT       FAIR     N/A N/A N/A E7        29.58R
FALCON         MOCLDY    37  32  83 W6        29.61S
FORT CARSON    FAIR      37  33  84 W5        29.57F
LIMON          CLOUDY    37  36  96 CALM      29.59R
MONUMENT HILL  CLOUDY    34  32  93 SW5       29.61S WCI  30
TRINIDAD       FAIR      47  31  53 SW10      29.57F
$$

COZ042>045-048>051-090-091-271400-
...NORTHEAST COLORADO...

CITY           SKY/WX    TMP DP  RH WIND       PRES   REMARKS
GREELEY ARPT   MOCLDY    40  37  89 N7        29.58S
AKRON          PTSUNNY   41  36  82 SE5       29.57F
BURLINGTON     NOT AVBL
WRAY           NOT AVBL
STERLING       CLOUDY    43  41  93 NE3       29.58S
HOLYOKE        FAIR      39  34  81 E6        29.61S
FORT MORGAN    CLOUDY    40  36  85 SE9       29.57F
$$

COZ086-089-092>099-271400-
...SOUTHEAST COLORADO...

CITY           SKY/WX    TMP DP  RH WIND       PRES   REMARKS
PUEBLO         FAIR      42  38  85 NE3       29.56S
LA JUNTA       FAIR      44  39  82 CALM      29.56S
LAMAR          CLOUDY    40  37  89 E7        29.55F
SPRINGFIELD      N/A     42  36  79 S5        29.59F
$$



USA.gov is the U.S. government's official web portal to all federal, state and local government web resources and services.